Change the Weather History Date:

Monday, July 15, 2013

  Actual Average (KRNO) Record (KRNO)
Temperature  
Mean Temperature 71 °F 75 °F  
Max Temperature 89 °F 93 °F 103 °F (1970)
Min Temperature 53 °F 58 °F 38 °F (1966)
Degree Days  
Heating Degree Days 0 0  
Month to date heating degree days 0  
Since 1 June heating degree days 56  
Since 1 July heating degree days 0  
Cooling Degree Days 6 11  
Month to date cooling degree days 138  
Year to date cooling degree days 311  
Since 1 June cooling degree days 274  
Growing Degree Days 21 (Base 50)    
Moisture  
Dew Point 35 °F    
Average Humidity 27    
Maximum Humidity 44    
Minimum Humidity 12    
Precipitation  
Precipitation 0.00 in 0.01 in 0.22 in (1911)
Month to date precipitation 0.08  
Year to date precipitation 4.36  
Snow  
Snow 0.00 in 0.00 in 0.00 in ()
Month to date snowfall 0.0  
Since 1 June snowfall T  
Since 1 July snowfall 0.0  
Snow Depth -    
Sea Level Pressure  
Sea Level Pressure 30.04 in    
Wind  
Wind Speed 7 mph (NW)    
Max Wind Speed 21 mph    
Max Gust Speed 29 mph    
Visibility 10 miles    
Events      
T = Trace of Precipitation, MM = Missing Value Source: NWS Daily Summary

Daily Weather History Graph

Daily Weather History Graph

Search for Another Location

Airport or City:

Trip Planner

Search our weather history database for the weather conditions in past years. The results will help you decide how hot, cold, wet, or windy it might be!

Date:

Astronomy

Jul. 15, 2013 Rise Set
Actual Time 5:44 AM PDT 8:26 PM PDT
Civil Twilight 5:12 AM PDT 8:57 PM PDT
Nautical Twilight 4:33 AM PDT 9:37 PM PDT
Astronomical Twilight 3:48 AM PDT 10:21 PM PDT
Moon 1:07 PM PDT (7/15) No Moon Set
Length of Visible Light 15h 44m
Length of Day
14h 41m
Waxing Crescent, 46% of the Moon is Illuminated
Jul 15
Waxing Crescent
Jul 15
First Quarter
Jul 22
Full
Jul 29
Last Quarter
Aug 6
New

Hourly Weather History & Observations

Time (PDT) Temp. Dew Point Humidity Pressure Visibility Wind Dir Wind Speed Gust Speed Precip Events Conditions
12:15 AM 66.2 °F 35.6 °F 32% 30.13 in 10.0 mi WNW 6.9 mph - N/A   Clear
12:35 AM 66.2 °F 35.6 °F 32% 30.13 in 10.0 mi NW 8.1 mph - N/A   Clear
12:55 AM 66.2 °F 35.6 °F 32% 30.12 in 10.0 mi WNW 9.2 mph - N/A   Clear
1:15 AM 64.4 °F 33.8 °F 32% 30.13 in 9.0 mi North - - N/A   Clear
1:35 AM 62.6 °F 32.0 °F 32% 30.12 in 10.0 mi NW 4.6 mph - N/A   Clear
1:55 AM 59.0 °F 32.0 °F 36% 30.12 in 10.0 mi North - - N/A   Clear
2:15 AM 60.8 °F 32.0 °F 34% 30.12 in 10.0 mi North 4.6 mph - N/A   Clear
2:35 AM 62.6 °F 33.8 °F 34% 30.13 in 10.0 mi NW 4.6 mph - N/A   Clear
2:55 AM 57.2 °F 33.8 °F 41% 30.12 in 10.0 mi NNW 6.9 mph - N/A   Clear
3:15 AM 57.2 °F 33.8 °F 41% 30.12 in 10.0 mi NNW 8.1 mph - N/A   Clear
3:35 AM 57.2 °F 33.8 °F 41% 30.12 in 10.0 mi NNW 9.2 mph - N/A   Clear
3:55 AM 55.4 °F 33.8 °F 44% 30.11 in 10.0 mi NNW 8.1 mph - N/A   Clear
4:15 AM 55.4 °F 32.0 °F 41% 30.11 in 10.0 mi North 6.9 mph - N/A   Clear
4:35 AM 57.2 °F 32.0 °F 38% 30.11 in 10.0 mi North 5.8 mph - N/A   Clear
4:55 AM 55.4 °F 32.0 °F 41% 30.11 in 10.0 mi North 3.5 mph - N/A   Clear
5:15 AM 53.6 °F 32.0 °F 44% 30.11 in 10.0 mi NNW 5.8 mph - N/A   Clear
5:35 AM 53.6 °F 32.0 °F 44% 30.11 in 10.0 mi North 5.8 mph - N/A   Clear
5:55 AM 53.6 °F 32.0 °F 44% 30.10 in 10.0 mi North 4.6 mph - N/A   Clear
6:15 AM 57.2 °F 33.8 °F 41% 30.11 in 10.0 mi Calm Calm - N/A   Clear
6:35 AM 57.2 °F 35.6 °F 44% 30.11 in 10.0 mi NNW 3.5 mph - N/A   Clear
6:55 AM 57.2 °F 35.6 °F 44% 30.11 in 10.0 mi Calm Calm - N/A   Clear
7:15 AM 62.6 °F 35.6 °F 37% 30.11 in 10.0 mi Calm Calm - N/A   Mostly Cloudy
7:35 AM 64.4 °F 35.6 °F 34% 30.11 in 10.0 mi Calm Calm - N/A   Scattered Clouds
7:55 AM 66.2 °F 35.6 °F 32% 30.11 in 10.0 mi WNW 3.5 mph - N/A   Scattered Clouds
8:15 AM 69.8 °F 35.6 °F 28% 30.11 in 10.0 mi Calm Calm - N/A   Mostly Cloudy
8:35 AM 71.6 °F 35.6 °F 27% 30.10 in 10.0 mi Calm Calm - N/A   Scattered Clouds
8:55 AM 73.4 °F 33.8 °F 23% 30.10 in 10.0 mi West 3.5 mph - N/A   Partly Cloudy
9:15 AM 73.4 °F 35.6 °F 25% 30.09 in 10.0 mi Calm Calm - N/A   Partly Cloudy
9:35 AM 73.4 °F 32.0 °F 22% 30.09 in 10.0 mi Calm Calm - N/A   Clear
9:55 AM 75.2 °F 32.0 °F 21% 30.09 in 10.0 mi NE 4.6 mph - N/A   Clear
10:15 AM 77.0 °F 32.0 °F 19% 30.08 in 10.0 mi Calm Calm - N/A   Clear
10:35 AM 78.8 °F 32.0 °F 18% 30.07 in 10.0 mi North 5.8 mph - N/A   Clear
10:55 AM 78.8 °F 32.0 °F 18% 30.07 in 10.0 mi NE 3.5 mph - N/A   Clear
11:15 AM 80.6 °F 32.0 °F 17% 30.06 in 10.0 mi SE 5.8 mph - N/A   Clear
11:35 AM 80.6 °F 32.0 °F 17% 30.06 in 10.0 mi SSW 3.5 mph - N/A   Clear
11:55 AM 82.4 °F 30.2 °F 15% 30.05 in 10.0 mi SSE 5.8 mph - N/A   Clear
12:15 PM 82.4 °F 30.2 °F 15% 30.05 in 10.0 mi SW 5.8 mph - N/A   Partly Cloudy
12:35 PM 82.4 °F 32.0 °F 16% 30.04 in 10.0 mi Calm Calm - N/A   Partly Cloudy
12:55 PM 84.2 °F 32.0 °F 15% 30.04 in 10.0 mi North 3.5 mph - N/A   Clear
1:15 PM 84.2 °F 28.4 °F 13% 30.03 in 10.0 mi Calm Calm - N/A   Clear
1:35 PM 84.2 °F 28.4 °F 13% 30.02 in 10.0 mi East 8.1 mph - N/A   Clear
1:55 PM 84.2 °F 28.4 °F 13% 30.01 in 10.0 mi Calm Calm - N/A   Clear
2:15 PM 86.0 °F 28.4 °F 12% 30.00 in 10.0 mi SE 4.6 mph - N/A   Clear
2:35 PM 87.8 °F 32.0 °F 14% 29.99 in 10.0 mi ENE 9.2 mph 16.1 mph N/A   Clear
2:55 PM 89.6 °F 32.0 °F 13% 29.98 in 10.0 mi South 9.2 mph - N/A   Partly Cloudy
3:15 PM 87.8 °F 32.0 °F 14% 29.97 in 10.0 mi East 9.2 mph - N/A   Clear
3:35 PM 89.6 °F 32.0 °F 13% 29.97 in 10.0 mi WNW 9.2 mph - N/A   Partly Cloudy
3:55 PM 86.0 °F 32.0 °F 14% 29.97 in 10.0 mi WSW 6.9 mph - N/A   Partly Cloudy
4:15 PM 89.6 °F 33.8 °F 14% 29.96 in 10.0 mi West 10.4 mph 17.3 mph N/A   Clear
4:35 PM 87.8 °F 37.4 °F 17% 29.95 in 10.0 mi NW 18.4 mph 27.6 mph N/A   Clear
4:55 PM 87.8 °F 39.2 °F 18% 29.95 in 10.0 mi WNW 11.5 mph 26.5 mph N/A   Clear
5:15 PM 87.8 °F 39.2 °F 18% 29.95 in 10.0 mi WNW 16.1 mph 23.0 mph N/A   Clear
5:35 PM 86.0 °F 39.2 °F 19% 29.95 in 10.0 mi West 15.0 mph 20.7 mph N/A   Clear
5:55 PM 86.0 °F 39.2 °F 19% 29.95 in 10.0 mi WNW 12.7 mph 20.7 mph N/A   Clear
6:15 PM 86.0 °F 39.2 °F 19% 29.94 in 10.0 mi WNW 13.8 mph 19.6 mph N/A   Clear
6:35 PM 86.0 °F 39.2 °F 19% 29.94 in 10.0 mi WNW 15.0 mph 21.9 mph N/A   Clear
6:55 PM 84.2 °F 39.2 °F 20% 29.94 in 10.0 mi WNW 16.1 mph 23.0 mph N/A   Clear
7:15 PM 82.4 °F 39.2 °F 21% 29.95 in 10.0 mi NW 20.7 mph 28.8 mph N/A   Clear
7:35 PM 80.6 °F 39.2 °F 23% 29.96 in 10.0 mi WNW 18.4 mph - N/A   Clear
7:55 PM 78.8 °F 39.2 °F 24% 29.96 in 10.0 mi WNW 16.1 mph 24.2 mph N/A   Clear
8:15 PM 77.0 °F 39.2 °F 26% 29.97 in 10.0 mi WNW 16.1 mph 20.7 mph N/A   Clear
8:35 PM 75.2 °F 41.0 °F 29% 29.97 in 10.0 mi WNW 16.1 mph - N/A   Clear
8:55 PM 75.2 °F 41.0 °F 29% 29.98 in 10.0 mi WNW 16.1 mph - N/A   Partly Cloudy
9:15 PM 75.2 °F 39.2 °F 27% 29.98 in 10.0 mi WNW 13.8 mph - N/A   Scattered Clouds
9:35 PM 73.4 °F 39.2 °F 29% 29.99 in 10.0 mi NW 11.5 mph 19.6 mph N/A   Clear
9:55 PM 73.4 °F 39.2 °F 29% 30.00 in 10.0 mi WNW 12.7 mph - N/A   Clear
10:15 PM 73.4 °F 39.2 °F 29% 30.00 in 10.0 mi WNW 11.5 mph - N/A   Clear
10:35 PM 71.6 °F 39.2 °F 31% 30.00 in 10.0 mi West 8.1 mph - N/A   Clear
10:55 PM 71.6 °F 39.2 °F 31% 30.00 in 10.0 mi WNW 11.5 mph - N/A   Clear
11:15 PM 71.6 °F 37.4 °F 29% 30.00 in 10.0 mi WNW 8.1 mph - N/A   Clear
11:35 PM 71.6 °F 37.4 °F 29% 30.00 in 10.0 mi WNW 8.1 mph - N/A   Clear
11:55 PM 69.8 °F 37.4 °F 31% 30.01 in 10.0 mi West 12.7 mph - N/A   Clear